Wind_Speed
28 29 30 32 34 36 38 37 36 40 41 38 33 21 4 1 4 11 11 9 6 4 1 4 2 2 4 4 5 6 5 4 5 5 2 1 1 0 1 2 2 3 2 1 1 1 1 2 1 1 2 2 3 5 4 7 6 5 2 0 2 2 4 4 1 4 3 5 4 3 3 4 5 1 1 4 3 3 5 5 3 3 1 1 2 2 6
28 29 30 31 33 35 37 36 35 35 37 36 28 11 2 2 5 9 13 10 3 3 2 3 3 4 4 4 6 6 6 6 7 6 2 1 0 1 2 2 2 4 2 1 3 3 2 3 3 1 2 3 5 7 8 8 5 3 2 3 2 2 2 4 3 3 5 6 6 5 5 3 2 3 3 2 4 5 3 2 3 1 4 5 4 3 6
27 28 29 31 33 34 36 35 34 31 33 34 22 4 2 5 3 4 10 9 2 3 4 3 3 4 3 5 8 6 5 5 7 7 4 2 2 1 2 3 2 3 2 1 2 2 5 1 4 3 2 1 3 6 8 7 5 2 3 5 4 3 3 4 5 4 2 2 3 3 2 1 1 3 4 1 4 7 3 2 4 1 4 6 5 5 6
27 28 29 30 32 34 35 35 33 29 30 32 20 4 2 3 2 3 6 6 3 0 1 2 1 3 4 5 6 5 4 4 6 6 5 3 2 2 2 2 3 3 4 4 3 2 2 3 1 1 1 0 1 3 6 6 5 5 7 7 4 4 3 3 6 7 7 7 7 5 2 2 2 4 5 5 4 6 5 3 2 4 4 3 5 6 4
25 26 27 29 31 33 34 35 33 28 27 27 16 3 1 2 2 3 4 4 4 4 4 5 4 4 4 3 5 5 4 4 5 4 2 1 0 0 1 0 1 1 2 3 3 4 4 2 2 2 2 1 1 1 4 4 5 7 7 5 4 5 1 1 6 6 7 8 7 5 2 3 5 5 5 8 7 4 6 4 5 5 5 4 8 6 6
24 25 26 28 30 31 34 35 33 29 26 21 10 1 1 2 2 3 4 2 2 3 5 5 6 7 6 3 4 5 5 4 3 3 4 4 2 1 3 2 2 4 2 2 2 3 5 4 0 1 1 2 2 3 4 3 3 5 5 3 5 6 1 3 5 3 5 6 5 4 2 3 4 4 6 9 8 5 5 7 7 7 6 8 9 9 10
23 24 25 27 28 30 32 34 33 31 25 14 5 1 3 3 2 3 5 3 2 4 7 7 6 7 6 3 3 3 4 5 4 2 3 5 4 2 3 3 5 5 1 3 2 2 1 3 3 1 2 1 2 2 2 3 3 4 4 2 2 5 2 4 4 0 3 3 3 2 1 3 4 6 8 10 10 9 7 7 7 9 9 10 9 9 11
21 22 23 25 27 28 30 32 33 32 25 12 6 5 5 3 3 4 4 4 4 5 6 5 5 5 5 3 4 5 4 5 5 3 2 2 4 2 3 6 6 6 3 4 1 3 2 3 5 4 4 1 1 2 2 1 1 2 3 1 2 2 3 4 3 3 5 5 3 3 3 3 4 7 8 9 9 8 6 5 5 7 8 8 5 5 8
20 21 22 23 24 26 28 30 32 31 26 16 6 6 9 8 8 6 3 4 4 4 5 5 4 4 4 5 6 7 8 9 9 5 2 2 2 2 5 7 5 3 5 6 2 3 2 1 5 5 6 6 4 3 3 5 3 1 2 1 1 2 2 0 5 3 4 5 4 5 6 6 5 6 6 7 7 5 5 5 3 5 5 2 2 3 6
18 20 20 21 22 23 24 27 29 29 27 20 8 6 13 14 11 8 3 3 4 4 5 5 3 3 5 8 8 7 9 13 13 7 5 3 1 2 4 4 1 4 7 3 2 3 2 1 5 5 3 5 4 3 4 6 6 3 2 2 2 4 4 2 3 3 4 5 1 2 4 5 5 6 4 5 6 6 7 5 1 3 3 5 4 5 5
17 18 19 19 20 21 22 24 27 26 26 23 12 7 12 13 8 6 3 1 3 5 4 4 4 5 9 11 10 9 11 15 13 7 5 6 5 4 4 2 2 3 2 3 6 3 0 0 1 2 5 7 6 5 5 6 5 5 4 3 2 4 5 2 3 3 4 6 2 3 3 3 6 7 4 4 5 7 9 6 5 5 3 5 4 4 6
15 16 17 18 18 19 20 21 24 24 23 22 15 9 14 16 9 4 3 2 3 4 4 4 5 7 10 12 10 11 12 12 12 10 7 6 6 6 5 5 5 2 4 6 4 2 2 3 4 5 7 7 6 6 7 6 4 4 6 6 4 4 5 2 2 4 3 3 4 2 5 6 7 7 6 7 7 7 8 6 4 4 4 8 8 8 9
14 14 15 16 17 17 18 19 22 23 21 20 17 13 17 20 10 2 2 2 2 3 4 5 7 9 11 12 12 11 11 11 11 10 7 6 7 7 6 6 5 4 5 2 5 6 4 3 4 4 6 7 6 6 6 5 4 2 3 6 7 6 4 3 2 3 2 1 2 4 7 6 6 8 8 7 6 4 4 3 4 5 3 9 11 8 7
13 14 13 15 15 15 17 17 19 21 21 20 18 14 16 19 12 3 2 2 1 4 4 3 7 11 11 12 12 10 11 12 12 10 8 7 7 7 8 7 8 9 3 3 6 5 3 3 4 4 5 6 5 4 5 5 4 3 3 3 6 7 5 2 2 3 3 3 3 3 4 6 6 7 7 4 3 4 5 3 2 6 4 5 11 9 7
12 13 12 13 14 14 15 16 18 20 20 19 18 13 12 17 15 7 3 1 1 3 3 2 6 10 9 9 10 9 8 9 10 9 8 6 5 7 7 9 13 12 3 5 4 3 3 3 3 3 3 2 1 3 4 3 3 4 6 7 4 7 6 5 5 3 3 4 2 2 3 5 6 8 8 5 5 5 5 5 1 6 7 2 10 11 9
12 12 12 12 13 13 14 15 16 18 19 19 19 13 10 14 18 13 5 1 0 1 2 5 7 7 5 5 8 8 5 5 7 6 6 6 8 11 11 13 15 11 3 5 3 3 4 3 3 3 2 3 2 3 2 2 3 3 5 6 4 4 3 5 6 3 3 5 3 3 4 5 7 9 8 7 5 3 6 5 3 5 5 1 8 11 10
11 10 11 11 11 12 12 13 15 16 17 19 20 15 9 11 16 15 6 1 1 2 3 7 8 4 3 4 6 6 4 4 5 3 4 6 8 11 13 14 14 8 3 4 3 3 5 2 2 2 2 3 2 3 3 1 2 4 5 5 3 3 4 4 6 5 4 5 4 3 3 5 7 7 6 6 3 4 6 1 7 6 3 1 7 10 9
10 10 10 10 10 11 11 11 13 14 16 18 18 15 8 7 12 13 5 2 2 4 3 10 9 4 4 4 4 3 4 4 3 3 4 4 4 7 10 10 9 8 4 3 2 3 3 1 2 3 3 4 1 3 4 3 3 4 3 3 2 2 2 3 5 5 6 6 4 3 3 5 6 5 3 4 1 4 3 6 6 4 3 3 7 8 7
10 9 9 9 9 9 10 10 11 12 14 16 17 14 6 5 12 15 8 2 1 3 5 11 8 3 4 5 3 2 4 4 3 3 4 3 4 9 10 5 2 6 5 2 2 2 3 2 2 3 2 4 2 3 4 4 4 4 3 3 3 2 1 1 3 4 4 5 4 2 4 5 6 4 2 3 1 3 6 6 4 4 6 6 6 6 6
10 9 9 9 9 8 9 9 10 11 12 14 16 15 6 5 12 16 10 4 3 4 7 7 4 3 6 4 3 3 4 3 2 3 2 3 6 9 6 2 4 6 5 4 3 1 1 2 3 2 3 4 3 3 4 4 4 5 4 4 4 5 4 2 3 4 3 3 3 2 4 6 5 3 2 3 2 6 5 3 3 4 6 6 5 5 6
10 9 8 9 8 8 8 9 9 10 10 11 14 13 8 6 11 13 12 8 4 3 3 5 7 11 10 8 9 9 6 5 5 4 2 4 4 4 2 2 4 4 3 3 2 2 2 2 3 1 2 3 3 3 4 4 5 6 5 4 4 4 4 3 4 3 4 4 5 5 5 6 5 5 3 3 5 6 6 6 5 4 4 5 4 3 4
10 9 9 8 8 7 8 8 8 9 9 10 12 11 10 10 10 11 13 10 5 6 10 13 17 21 21 21 22 19 16 16 17 13 6 4 3 2 3 3 4 2 1 2 2 2 4 3 3 3 2 2 2 3 4 4 5 6 2 3 5 6 6 5 4 3 4 5 6 5 4 5 4 4 5 7 6 5 6 7 5 3 4 4 4 4 5
10 9 9 8 8 8 7 7 8 8 9 10 10 10 11 12 11 14 15 10 6 10 16 17 17 18 19 19 19 18 17 19 22 21 15 7 3 2 4 4 3 3 1 2 3 1 3 3 3 3 3 3 2 2 1 2 4 4 3 2 3 3 3 4 2 3 3 2 2 3 2 2 3 3 4 5 5 4 4 5 5 4 4 4 5 6 5
10 9 9 8 8 8 7 7 7 8 9 9 9 9 12 11 10 15 15 7 3 6 8 7 5 6 9 13 17 18 17 14 14 18 19 13 7 2 2 4 3 3 3 2 1 1 2 3 3 3 4 4 2 2 2 3 3 2 2 3 5 5 3 3 2 1 3 2 2 1 1 2 1 3 5 5 4 2 2 4 4 2 2 4 5 6 5
10 9 9 9 8 7 7 7 7 7 8 9 8 9 11 9 8 11 11 5 2 3 3 3 4 6 10 16 19 19 18 16 14 18 19 16 14 10 7 7 7 6 5 5 3 2 1 3 3 3 5 5 3 3 3 2 3 2 1 2 3 3 4 3 3 1 3 4 3 2 7 8 6 5 5 6 7 7 5 5 5 5 5 5 4 5 5
11 10 10 9 8 7 7 6 6 7 8 8 8 9 11 11 9 9 9 7 3 2 3 3 4 6 13 19 21 21 20 19 18 19 19 18 18 19 17 14 11 9 6 4 3 2 3 3 3 4 5 4 3 3 3 3 3 2 2 4 3 2 3 2 2 2 1 0 2 5 8 8 7 6 5 4 6 7 6 5 6 6 6 6 5 4 5
12 11 10 10 9 8 7 6 7 7 7 8 8 9 11 12 11 8 7 7 3 1 2 3 4 7 15 20 24 23 18 16 17 18 18 18 17 19 17 11 7 6 5 3 3 3 3 3 4 4 4 5 5 5 5 5 3 1 3 5 3 1 0 1 4 4 2 2 3 3 4 3 1 1 3 4 5 7 7 6 7 6 6 6 6 4 4
12 11 11 11 10 9 8 7 7 7 7 7 8 10 13 14 12 9 8 7 5 3 3 4 6 10 13 16 19 20 18 16 18 19 19 19 19 18 14 8 5 4 4 3 3 3 4 4 5 4 3 4 5 5 5 3 3 2 3 5 4 3 5 5 4 3 4 7 7 5 5 4 5 5 5 6 5 6 7 6 6 6 5 5 6 5 5
13 12 11 11 10 10 9 8 7 6 6 7 9 11 11 10 8 5 4 5 7 5 4 5 6 6 7 11 16 21 24 24 23 21 20 20 19 16 12 7 5 4 4 4 4 4 4 4 4 4 4 3 3 5 5 3 3 5 5 6 5 3 4 4 5 5 4 5 6 6 6 5 6 7 6 6 5 7 7 6 6 6 5 5 5 5 6
13 12 12 11 11 11 10 8 7 6 6 6 6 7 5 5 6 3 4 5 10 5 2 3 4 4 6 10 14 19 24 26 23 20 18 16 13 12 11 8 6 5 4 4 4 4 4 3 3 4 5 5 3 4 5 4 4 5 6 5 4 2 4 2 3 4 3 4 6 6 6 7 7 5 4 5 6 7 6 5 6 6 5 5 5 4 5
14 13 12 11 11 11 10 8 8 7 6 5 2 1 1 1 3 6 5 8 14 7 1 2 3 4 6 6 8 13 19 21 17 14 13 12 11 13 13 10 5 5 5 3 3 4 4 4 4 4 4 5 5 4 5 5 5 6 6 6 4 2 5 6 5 6 6 6 4 3 4 5 5 4 4 4 5 7 7 5 6 7 8 8 7 6 7
14 13 12 12 12 11 10 9 9 9 10 10 8 6 5 5 3 3 5 15 15 6 2 3 3 3 3 4 7 13 16 15 10 7 6 6 6 8 10 8 4 5 6 4 3 3 4 4 5 5 4 4 3 4 5 7 7 7 6 5 4 4 4 6 6 6 8 8 6 5 3 2 3 4 5 5 5 7 7 6 7 10 12 11 10 9 9
14 14 13 12 11 10 10 9 8 10 12 13 15 17 17 15 13 13 15 16 11 4 3 3 3 3 3 5 10 12 9 6 4 2 2 4 4 3 4 5 3 4 6 6 3 3 3 3 4 6 5 4 3 5 6 7 7 7 7 6 6 8 7 5 4 4 6 7 6 5 6 6 5 5 6 6 5 6 7 7 7 8 9 9 7 6 7
14 13 13 12 11 10 9 8 8 11 11 11 16 20 19 17 15 13 12 9 5 3 3 2 2 3 3 4 7 7 6 4 2 2 3 4 5 4 2 3 2 2 5 5 3 3 4 4 4 5 4 4 4 6 8 9 9 6 6 6 7 7 6 2 1 2 4 3 3 3 6 7 6 5 6 7 6 5 6 6 7 7 7 7 5 3 3
14 13 13 12 10 9 8 8 9 9 8 10 15 16 11 8 6 6 6 5 3 1 1 2 2 2 3 3 4 6 7 7 4 3 4 4 4 4 3 3 2 3 4 3 3 5 5 3 4 5 5 4 5 7 8 10 9 6 5 7 7 6 5 3 1 3 4 6 7 6 6 7 7 6 6 6 6 6 7 7 7 8 8 6 5 4 3
15 14 13 11 9 8 7 8 9 8 7 9 10 8 6 4 4 5 7 8 6 4 2 1 1 2 1 2 4 5 7 6 4 3 4 4 3 2 2 3 3 4 3 3 4 6 5 4 4 6 6 6 7 8 7 8 9 8 7 8 8 7 6 5 6 7 7 9 9 8 7 8 7 6 6 6 6 7 9 8 8 8 8 6 5 5 4
16 14 12 10 8 5 4 6 9 10 10 11 9 6 6 6 5 4 5 8 9 7 3 2 2 2 1 1 3 5 6 5 4 5 4 4 4 3 2 2 3 3 2 3 5 5 4 4 5 7 7 8 8 8 7 7 8 9 9 8 8 6 5 8 10 11 9 9 9 8 7 8 7 5 6 7 7 8 9 8 6 7 7 6 5 4 4
16 15 14 11 6 2 2 6 9 9 6 4 4 5 4 3 3 2 3 3 5 5 3 1 3 3 1 2 4 4 5 4 3 4 3 3 4 3 2 2 2 2 2 4 5 4 3 3 5 6 8 8 9 10 10 9 8 7 6 7 7 6 7 8 10 12 10 7 6 7 7 7 7 6 7 8 8 8 8 6 5 5 6 5 4 5 5
17 15 11 7 4 3 3 4 5 5 3 3 3 3 2 2 2 2 2 2 2 3 2 3 4 4 4 5 6 6 4 4 3 3 2 3 3 3 2 3 2 2 3 4 4 3 3 4 4 5 7 8 9 10 10 9 9 8 7 7 6 6 8 9 9 11 11 9 9 9 8 8 8 8 8 8 8 7 6 6 5 6 6 6 6 7 6
17 12 6 4 4 5 5 3 5 5 4 3 2 1 1 1 1 1 1 2 2 2 3 3 3 4 6 7 6 5 6 5 3 3 3 3 3 1 1 2 1 1 2 4 4 3 2 2 3 5 7 8 8 8 7 7 8 8 8 7 6 6 9 8 6 6 8 8 8 7 7 8 9 9 8 8 8 7 6 6 6 7 8 8 9 8 7
15 10 4 4 6 8 7 4 4 3 2 1 1 1 1 1 1 1 1 2 2 2 2 3 2 3 5 7 5 4 5 5 3 2 3 3 2 1 1 1 1 1 2 4 3 2 1 1 3 6 7 5 5 6 7 8 9 10 9 6 5 6 9 8 6 7 10 10 8 8 9 9 9 8 7 7 7 7 6 6 7 9 10 10 10 10 10
16 11 6 4 6 8 6 3 2 1 1 1 0 1 1 1 1 1 2 2 2 2 2 3 4 3 3 4 5 4 3 3 2 1 2 3 2 1 1 1 1 2 3 2 2 2 2 3 4 6 6 6 6 7 8 8 8 6 5 5 7 9 11 12 10 10 11 11 8 7 9 10 9 9 10 11 9 8 7 6 8 10 12 12 12 11 10
15 12 6 3 3 4 3 2 1 1 1 1 1 1 2 2 1 2 2 2 2 2 2 1 2 1 1 1 1 1 1 1 1 0 2 3 1 0 1 1 2 3 2 1 1 2 4 4 4 5 5 5 5 4 3 3 5 5 5 5 7 9 12 14 13 11 12 12 11 10 11 12 11 12 14 15 12 9 7 8 10 13 15 14 13 11 9
12 8 4 1 1 2 2 2 2 2 2 2 2 2 2 2 2 2 3 2 2 2 2 1 1 1 2 0 0 1 1 1 2 0 1 2 1 1 1 2 2 2 2 1 1 3 4 4 4 5 5 3 4 5 4 3 8 11 9 7 8 9 11 12 12 11 10 10 11 12 13 12 12 13 13 13 13 11 9 10 13 15 16 14 12 10 8
7 3 2 1 0 1 1 1 1 2 2 3 2 3 3 3 4 4 4 3 2 2 2 2 3 1 1 0 1 1 1 1 1 1 1 1 1 2 2 2 2 1 2 2 2 3 4 3 3 4 5 4 5 6 6 5 4 9 12 10 9 9 9 10 10 8 7 7 9 10 10 11 11 11 11 12 14 16 15 14 15 16 15 13 11 10 9
3 2 2 2 1 1 1 1 1 2 2 3 4 4 4 4 4 4 3 2 2 2 3 3 3 2 1 1 1 1 1 1 2 2 1 1 2 2 2 2 2 1 2 3 4 4 4 3 3 3 3 4 3 5 6 7 7 1 10 13 10 8 9 9 8 7 7 8 9 10 10 10 11 10 10 11 14 16 16 15 15 15 14 13 11 10 10
1 1 1 1 1 1 1 2 3 3 2 3 4 4 5 5 5 4 2 1 1 1 1 1 1 1 1 1 1 1 1 1 2 2 2 2 2 1 0 1 2 3 3 3 4 4 3 3 3 3 3 4 4 4 8 6 7 6 2 9 10 10 9 9 8 8 8 9 10 9 9 10 11 11 11 11 12 13 13 13 12 12 12 12 11 11 12
1 2 1 1 1 2 3 3 3 3 3 3 3 4 4 3 2 1 1 2 2 2 2 1 1 1 1 1 1 2 2 2 3 2 2 1 1 1 1 2 3 3 3 3 3 3 3 3 3 3 1 1 3 3 5 4 3 7 3 5 10 11 10 9 7 8 9 9 8 7 8 10 12 12 12 11 10 10 11 11 12 12 13 14 14 13 13
1 1 1 1 1 2 3 3 3 3 4 4 4 3 1 0 1 0 1 2 2 2 1 0 1 2 1 1 1 2 2 2 2 2 2 2 2 2 2 2 3 3 3 3 2 2 3 4 4 3 2 3 4 4 3 0 4 6 3 4 8 9 9 9 8 9 10 10 9 8 10 11 12 12 11 10 8 8 10 11 13 13 13 14 15 14 13
0 0 1 1 1 2 3 1 2 3 3 2 2 1 1 1 0 1 2 2 2 0 1 1 1 1 1 1 1 2 2 3 2 2 3 3 2 2 2 3 3 3 2 2 2 2 3 3 2 2 4 6 6 5 4 3 4 3 2 6 7 8 8 9 9 9 9 10 10 11 12 12 12 11 10 10 10 11 11 11 12 12 12 13 14 13 13
1 1 2 2 3 3 2 2 2 3 3 3 3 2 2 1 2 3 3 3 2 1 2 2 2 1 1 2 2 2 2 2 2 3 3 2 2 2 3 4 3 3 2 2 3 2 2 3 4 4 5 5 4 4 5 5 2 2 5 7 8 9 10 10 10 9 9 11 12 12 11 11 10 11 12 13 14 13 11 10 11 12 12 11 11 12 12
2 2 3 3 4 4 3 3 3 4 4 5 4 3 3 3 4 4 5 4 2 2 2 2 2 1 1 3 3 2 1 1 2 3 3 2 2 3 4 4 3 3 2 2 2 1 2 3 3 3 3 3 2 2 4 4 2 5 6 6 7 8 8 8 9 9 9 10 10 10 9 10 11 12 14 14 12 8 7 8 10 11 11 11 11 11 12
Wind_Direction
349 349 350 351 352 353 354 356 360 2 0 357 357 353 335 143 296 278 283 309 338 77 106 298 304 238 251 254 258 265 269 273 273 278 292 273 268 304 213 228 229 238 222 157 101 94 314 303 16 45 359 36 344 329 60 91 78 74 95 304 6 56 84 92 334 308 305 305 332 47 76 91 97 343 210 148 156 144 156 185 172 149 195 126 93 247 267
347 347 349 350 350 352 353 355 357 2 4 359 354 351 330 308 279 280 298 311 352 106 202 259 268 274 288 289 282 277 267 262 263 267 263 206 168 38 280 256 227 242 232 169 211 177 127 322 333 59 56 20 357 6 43 69 65 59 159 165 96 67 94 93 66 357 337 337 349 357 350 24 75 282 274 164 128 112 122 129 92 101 212 155 132 232 256
345 347 349 349 349 350 351 353 354 359 2 357 352 341 274 310 254 255 304 321 359 163 182 179 234 293 324 301 292 287 268 258 257 255 238 193 161 146 273 304 310 274 295 13 267 171 132 217 317 15 66 11 6 40 55 68 66 51 116 118 100 108 123 109 117 149 208 251 267 266 278 319 303 281 287 280 134 134 145 120 102 217 228 153 147 219 259
344 346 348 348 348 349 350 351 352 355 358 354 347 314 259 338 331 288 311 336 12 238 228 73 28 316 323 300 284 270 267 293 286 261 230 206 181 170 228 314 8 355 5 18 335 309 130 131 39 32 115 266 305 93 90 90 99 92 88 87 81 89 94 113 135 163 189 197 218 228 172 150 263 272 283 288 232 171 142 99 142 198 188 174 208 206 214
342 344 346 346 347 349 351 351 351 352 354 351 343 298 209 354 336 341 337 331 353 356 354 21 14 318 304 278 269 277 289 305 306 293 269 278 355 185 248 355 50 309 345 10 324 305 327 32 114 154 169 199 289 66 78 91 121 111 85 70 87 89 38 153 142 174 201 191 211 238 197 201 236 253 270 280 271 198 156 191 219 165 136 249 252 199 182
341 343 345 345 347 350 352 352 352 352 352 350 345 252 249 317 301 0 9 321 330 355 327 326 332 321 311 275 261 291 309 300 296 305 318 337 357 309 316 349 278 249 211 168 262 321 344 339 309 142 141 146 106 39 11 13 78 93 68 37 94 107 192 215 157 200 225 197 223 252 228 236 254 265 267 270 273 245 198 215 211 158 166 241 235 193 201
339 342 343 344 347 351 353 354 355 355 354 359 16 10 339 336 316 350 5 340 292 286 287 299 321 324 321 306 269 289 314 310 300 307 342 347 338 273 266 287 287 283 246 135 195 241 306 302 277 127 78 77 107 76 355 341 15 76 90 41 76 106 200 219 162 226 285 265 274 276 272 294 292 292 285 272 259 242 220 219 202 179 203 233 221 203 218
337 339 343 344 347 352 354 356 358 358 2 18 52 38 18 355 310 333 349 325 293 281 291 318 334 325 327 325 300 304 320 320 315 331 41 340 317 301 255 259 268 288 332 75 95 246 205 244 247 177 125 123 156 140 170 199 342 57 106 63 20 95 238 236 119 64 308 302 324 338 351 342 301 296 295 281 266 253 245 246 213 196 225 242 222 214 243
336 339 342 344 348 353 355 358 0 3 9 19 28 17 6 336 311 325 327 292 306 313 314 332 335 325 346 356 335 328 333 335 331 317 248 215 246 276 288 286 287 330 34 67 44 325 75 135 247 214 165 174 182 168 169 157 132 89 114 114 101 130 195 290 79 81 275 291 342 339 350 1 319 296 285 279 282 272 265 272 246 227 230 190 134 214 251
336 339 341 345 349 352 356 359 1 5 14 20 15 341 350 346 334 340 336 269 312 335 324 336 351 343 357 355 340 330 333 341 347 331 288 287 259 260 298 302 307 52 54 60 280 309 52 172 252 255 169 140 120 112 141 137 132 147 126 93 131 128 120 122 104 121 260 281 348 11 12 6 306 266 237 267 291 285 286 304 277 225 164 134 174 222 216
336 337 341 346 350 352 356 359 1 6 13 16 8 318 335 349 335 328 356 315 318 340 346 359 10 356 350 348 339 338 343 350 359 350 305 310 323 327 356 39 107 83 47 266 256 264 354 160 266 350 53 69 60 58 84 93 108 140 126 98 130 114 109 149 139 126 257 285 22 53 5 321 258 240 219 251 272 270 274 262 203 202 161 135 160 164 153
335 337 342 346 347 351 355 357 0 4 7 7 1 334 340 347 324 291 23 9 301 344 8 354 352 346 342 344 344 345 347 349 348 336 312 308 323 336 15 60 70 35 279 275 301 6 34 31 22 14 23 34 34 40 51 53 68 124 127 125 136 119 120 160 121 122 214 304 41 23 266 243 244 266 275 269 263 255 250 238 221 228 174 129 124 141 155
334 336 340 344 345 348 352 355 358 1 1 2 0 351 352 356 344 290 28 5 281 346 352 323 336 346 343 346 349 344 343 343 340 338 337 330 331 343 17 47 34 317 269 275 39 49 57 30 17 7 356 360 11 21 20 6 355 19 100 128 141 145 149 161 150 148 173 88 103 215 244 256 287 300 294 284 284 266 233 251 321 306 209 144 133 146 160
333 335 337 340 343 345 349 352 355 355 358 1 358 353 2 10 8 335 341 7 282 318 326 316 335 343 344 348 350 345 344 349 350 350 347 327 320 344 9 10 336 312 296 79 49 48 75 51 27 10 350 3 13 347 327 321 312 299 279 219 155 146 144 145 204 213 169 163 197 238 281 303 309 293 278 277 278 242 202 183 327 318 290 152 137 142 155
330 332 334 337 341 344 346 349 351 351 354 359 358 358 14 17 10 349 320 351 306 310 341 4 336 335 340 350 357 357 352 355 354 339 323 316 323 341 353 345 324 315 342 73 55 48 69 75 71 34 347 15 24 289 296 310 288 246 245 249 188 153 163 179 205 229 148 147 228 300 291 278 263 253 261 272 251 220 153 112 1 313 311 206 146 145 150
326 329 331 334 337 341 344 346 347 347 351 356 357 2 24 25 12 359 337 317 346 287 346 355 342 337 338 345 2 11 2 350 349 331 321 338 344 334 334 337 327 317 8 68 62 75 68 77 125 133 219 203 196 247 262 303 297 274 259 256 216 146 131 151 170 202 145 154 204 223 215 242 242 241 264 279 251 186 96 70 306 292 310 339 142 145 148
319 323 327 331 333 337 340 343 343 343 348 353 352 353 11 27 13 0 344 350 11 253 291 0 4 359 3 355 355 6 2 341 345 339 321 329 333 330 333 336 331 329 51 66 36 66 76 89 115 115 242 232 184 238 251 248 283 304 311 288 236 116 94 139 169 190 176 170 201 220 220 248 238 230 257 273 259 83 82 248 261 259 273 87 130 145 155
313 317 322 326 328 332 337 339 340 341 344 348 348 345 352 27 19 6 354 354 338 260 307 10 10 351 8 5 329 333 354 340 337 332 309 307 333 337 325 322 332 340 4 69 79 81 95 155 144 133 238 273 285 239 246 234 231 250 263 260 238 123 113 173 182 185 176 175 202 244 250 251 238 231 277 292 340 77 133 218 233 217 201 156 127 140 160
307 313 318 320 323 328 332 334 338 340 342 347 349 347 355 49 25 8 352 314 263 250 321 349 347 327 4 0 313 319 345 329 337 3 339 317 334 326 306 286 346 344 340 35 85 121 143 201 215 152 198 280 278 222 232 230 228 229 202 204 221 190 171 175 162 169 173 171 189 248 270 253 225 210 332 359 133 199 220 220 200 157 158 151 130 139 157
302 306 310 314 317 323 327 328 334 340 342 347 349 345 351 38 17 5 357 322 280 282 298 304 291 318 353 348 307 330 345 338 352 17 342 284 321 339 333 325 357 347 351 23 17 329 160 215 246 188 187 235 230 219 253 265 254 239 208 197 205 191 185 199 187 172 155 157 178 213 255 252 216 158 27 23 155 203 212 180 174 176 159 142 131 149 161
296 296 299 307 309 314 324 325 328 335 338 345 348 342 336 350 1 3 359 342 306 267 277 299 316 322 315 292 283 285 275 262 275 297 293 273 300 2 36 302 313 330 354 16 354 328 348 310 275 259 199 228 229 217 232 259 277 264 223 192 211 204 182 198 218 187 145 167 206 210 214 220 187 141 154 201 190 190 174 155 174 202 174 139 125 162 184
289 288 291 299 302 308 319 319 322 329 331 338 347 341 328 334 355 8 357 337 290 257 278 293 300 298 289 282 279 271 257 254 259 262 270 289 285 200 189 267 288 272 305 19 38 347 345 330 298 310 308 276 276 244 217 218 262 278 248 180 219 225 195 177 195 203 171 177 206 212 198 198 181 151 175 192 185 174 161 148 151 192 195 158 139 166 188
284 282 283 291 297 302 310 313 315 318 322 332 343 339 328 330 352 5 355 333 292 285 285 282 285 286 280 279 280 281 279 274 264 258 252 248 262 235 208 228 269 264 266 54 66 350 308 290 272 290 279 253 256 301 294 241 243 268 283 249 251 255 195 152 153 223 219 183 181 190 176 178 174 147 147 163 168 177 167 138 135 189 204 165 146 158 165
276 274 275 281 288 294 300 305 306 306 314 325 330 327 322 320 339 354 350 335 314 317 299 281 275 267 276 296 307 308 304 289 274 274 267 245 231 274 240 208 233 293 308 318 5 19 302 283 276 286 282 272 264 262 269 264 251 260 319 310 313 342 25 68 64 137 180 216 284 277 42 26 73 89 74 73 81 92 120 119 124 161 160 136 141 147 147
269 268 268 270 277 283 288 295 298 300 309 318 319 318 316 313 332 347 341 326 329 328 309 301 278 273 306 319 312 302 298 290 288 296 289 260 233 236 250 245 249 267 283 292 315 6 307 278 283 291 284 278 273 253 236 247 263 277 353 286 288 349 35 44 24 68 168 215 259 67 59 37 30 50 64 77 83 79 81 98 104 96 93 103 117 119 115
263 262 262 263 267 274 278 285 293 297 305 312 312 310 308 308 318 327 322 318 314 268 266 277 270 308 335 324 303 296 301 301 298 301 298 282 258 248 250 254 257 256 252 261 285 280 256 249 251 268 273 272 282 284 267 255 266 294 292 241 216 87 62 85 70 34 19 194 111 86 66 41 27 36 53 90 105 99 97 101 95 89 89 85 75 77 92
256 255 255 255 259 266 272 279 286 294 301 301 300 302 302 302 303 301 300 311 320 292 286 270 270 330 332 309 297 303 311 309 310 310 305 301 292 276 264 255 245 238 230 236 265 256 242 248 247 243 255 270 283 286 270 253 251 283 279 264 256 18 320 151 81 47 353 224 182 145 103 96 163 119 112 136 127 109 103 90 78 85 104 107 96 76 73
251 250 249 250 254 258 264 274 280 288 296 298 300 300 294 291 290 281 275 288 290 276 292 291 292 317 317 298 298 311 311 305 310 311 304 305 307 301 291 277 257 236 213 211 244 231 221 248 260 248 249 268 278 282 277 266 258 249 246 254 252 214 199 187 145 139 219 224 212 183 136 148 201 197 170 176 157 110 103 94 89 107 138 135 116 91 67
245 245 244 246 249 250 255 267 274 279 286 295 307 309 303 308 319 296 262 304 312 283 276 305 298 296 301 301 306 309 305 303 304 300 296 297 298 297 298 295 282 264 223 206 224 225 218 232 246 245 254 272 293 296 293 287 272 256 237 236 242 220 187 191 185 180 203 220 204 175 137 151 195 202 185 180 155 112 104 94 91 111 139 137 114 92 89
240 238 238 241 244 243 247 254 259 266 276 287 310 323 328 4 26 87 137 23 3 347 283 306 300 292 304 302 298 297 297 299 299 292 286 284 281 281 286 286 277 267 244 215 211 216 220 228 231 238 244 239 246 278 279 264 258 256 246 252 272 1 66 94 157 152 160 203 194 173 153 162 179 183 154 139 126 113 105 94 90 100 105 95 82 76 99
237 232 232 235 236 237 242 243 243 253 259 253 267 45 87 350 67 124 122 7 356 352 292 274 282 297 301 276 266 283 290 291 290 284 276 270 265 264 267 270 272 267 260 249 230 224 227 237 245 252 249 234 231 252 260 257 261 260 255 261 261 173 116 117 135 140 153 177 175 126 122 154 151 101 85 108 118 112 108 105 108 107 96 86 93 114 127
234 228 226 228 230 234 237 236 235 243 244 238 233 229 237 257 243 199 295 326 334 331 271 285 287 291 301 284 283 290 288 283 280 277 264 254 250 251 251 248 248 255 251 246 242 237 226 221 237 249 252 248 257 266 253 246 248 246 244 252 254 220 171 158 161 160 158 157 134 85 76 181 182 147 147 152 125 108 109 115 116 110 102 96 102 117 126
230 224 222 224 224 227 232 234 236 244 250 255 256 254 254 259 262 269 289 306 312 285 249 287 291 272 293 314 306 298 294 290 284 272 244 229 215 217 237 231 224 241 239 225 216 232 227 213 227 243 240 231 249 264 257 248 244 237 232 238 249 249 236 203 181 187 184 171 156 152 174 192 195 168 149 135 118 113 120 123 116 102 89 85 93 113 130
224 220 218 218 216 219 227 233 239 246 256 267 267 267 268 268 270 280 288 287 280 268 262 265 278 284 304 324 310 307 327 336 304 277 283 246 204 185 220 235 209 214 225 215 209 242 242 223 228 246 241 215 221 242 250 249 246 240 241 246 244 244 250 257 98 181 199 174 109 121 153 151 135 119 115 111 112 111 101 94 92 84 71 64 69 97 137
217 212 210 210 211 212 220 232 241 249 261 265 265 274 290 292 280 278 265 239 218 257 265 212 224 278 319 319 289 301 326 327 296 269 280 260 216 194 209 224 221 223 217 198 206 234 235 210 212 238 239 215 218 235 241 244 245 247 252 256 249 240 247 268 50 95 108 96 85 86 101 104 101 100 95 84 82 82 74 67 72 81 80 69 57 58 64
209 204 200 198 198 202 218 234 235 234 241 249 259 284 318 310 288 271 248 233 226 234 279 317 211 213 262 273 271 311 335 328 313 315 309 298 296 269 219 207 227 233 208 181 211 228 221 194 207 235 237 223 227 238 237 233 235 237 239 246 249 241 224 189 141 115 102 101 105 105 99 95 98 97 85 74 71 76 78 74 72 78 81 74 56 48 46
203 193 180 174 178 193 230 236 230 233 243 250 265 295 293 269 265 258 237 231 228 225 237 323 269 254 322 288 275 327 342 328 326 341 333 320 323 312 277 254 253 244 216 209 219 219 206 198 217 235 237 231 233 240 238 228 228 231 231 235 236 222 185 156 139 125 111 104 108 111 107 106 107 100 92 89 86 83 83 80 76 81 84 74 58 53 52
194 179 167 161 161 176 237 233 235 246 254 246 260 281 270 232 221 222 202 200 211 204 183 205 241 250 290 267 269 306 329 330 342 345 325 318 324 317 312 314 302 298 280 249 228 203 190 210 226 235 242 243 240 237 235 235 236 234 227 224 219 194 168 159 146 132 126 128 138 141 132 123 120 114 106 103 100 96 96 95 90 90 89 80 78 83 75
179 169 163 162 172 199 223 226 230 231 201 164 193 249 236 153 179 222 188 165 194 193 178 207 225 217 213 236 258 267 263 278 307 302 280 304 317 309 322 337 339 346 322 288 269 239 220 227 236 240 244 246 241 234 232 234 240 242 238 237 227 191 172 176 169 156 154 163 168 162 150 137 133 128 119 116 116 113 112 112 105 94 91 91 90 84 72
171 164 163 181 203 213 213 182 157 164 174 172 181 227 225 160 187 204 182 184 212 205 191 204 218 208 203 220 251 252 224 223 253 263 256 273 283 287 322 315 320 9 312 277 274 272 252 245 253 247 243 243 241 236 230 229 234 238 240 243 231 189 173 179 178 153 140 134 135 136 130 124 125 126 126 130 131 125 121 120 112 103 102 102 96 89 85
168 167 173 201 204 205 207 194 161 146 144 138 144 195 240 232 219 221 217 215 223 224 197 186 203 216 204 205 226 241 225 220 231 243 255 266 259 161 168 264 275 277 260 261 276 297 286 238 244 248 254 260 251 236 227 228 235 236 228 213 185 152 140 126 105 104 111 110 110 111 108 107 112 118 123 127 126 120 119 119 108 102 104 105 102 99 100
176 175 166 165 177 179 180 190 196 132 85 92 136 222 232 222 211 213 220 222 232 241 211 182 194 216 206 191 198 214 220 225 238 246 261 268 255 161 171 253 279 246 247 277 329 315 264 245 247 252 261 268 257 241 228 224 232 239 216 166 143 133 125 114 104 105 111 113 112 110 107 105 106 111 114 115 111 110 115 118 111 106 108 110 111 111 113
180 178 160 127 152 164 160 170 197 164 131 138 157 172 196 220 225 208 215 228 227 238 255 227 204 252 1 62 210 248 228 171 148 292 271 273 294 61 160 222 244 248 260 332 4 269 257 260 258 257 263 275 286 286 256 177 128 85 66 87 110 115 115 113 111 109 107 106 105 103 101 103 106 111 114 114 111 109 110 113 118 121 122 121 121 122 127
172 171 160 120 153 173 153 152 181 185 176 179 181 181 193 206 197 194 219 238 216 214 240 221 110 21 337 355 174 296 309 105 98 61 252 248 268 273 227 224 242 268 292 312 249 245 256 266 270 275 286 321 19 21 9 62 99 94 81 70 81 93 100 103 106 104 100 98 97 95 96 97 99 99 101 106 117 125 119 109 116 126 130 129 127 131 141
150 142 133 103 109 178 158 153 194 204 190 181 184 197 206 208 196 198 217 233 218 209 211 163 132 140 292 241 135 273 272 143 141 203 229 235 247 237 228 235 256 287 292 269 249 246 251 261 293 316 323 347 34 46 24 5 60 110 110 98 87 90 97 98 98 98 100 98 93 91 89 88 89 90 93 103 117 124 120 116 123 133 137 135 133 138 151
133 144 153 142 146 170 169 162 184 197 199 198 198 201 208 215 217 219 228 229 197 191 191 164 146 170 223 208 172 221 206 192 208 210 182 196 233 229 230 252 259 240 239 239 240 244 252 259 277 301 317 329 4 60 54 8 334 63 119 115 110 105 102 101 101 100 101 99 96 96 94 92 96 105 108 104 106 113 120 127 137 141 141 141 141 143 148
141 163 156 148 163 169 189 213 212 213 217 209 202 202 207 216 225 235 255 263 225 190 170 153 153 178 194 201 228 227 200 215 242 222 172 197 233 232 226 256 235 221 225 230 229 238 252 263 275 290 309 322 339 47 70 42 329 312 89 115 119 114 107 106 108 108 110 110 108 107 105 103 107 115 114 105 105 116 126 133 138 140 139 140 141 139 140
144 144 151 182 182 184 206 217 224 250 267 257 241 237 236 232 234 264 348 1 19 49 60 36 294 290 266 213 235 234 207 204 227 228 205 207 231 216 213 239 236 229 229 229 223 226 235 232 225 221 227 333 350 37 81 98 260 269 249 134 123 118 114 114 112 113 118 120 116 110 109 111 115 120 118 111 112 120 124 128 133 136 136 136 134 131 130
71 107 182 209 213 233 226 207 201 243 257 253 249 252 256 43 87 125 83 51 52 62 68 255 256 262 247 204 221 246 231 210 218 230 213 197 206 209 209 230 243 245 249 252 249 256 269 265 247 217 138 76 45 33 42 37 247 247 221 113 105 107 112 117 118 118 120 118 114 111 112 115 119 122 120 116 117 121 121 124 131 135 136 136 134 128 124
55 210 225 202 219 276 273 241 228 257 267 275 277 255 107 63 4 209 159 116 103 136 261 252 227 232 245 216 222 250 233 202 203 227 218 203 205 212 213 228 240 242 250 269 274 282 300 311 327 37 58 58 48 22 344 297 253 225 113 88 91 100 108 110 111 111 111 112 114 115 115 118 126 133 136 135 133 130 125 123 127 132 135 137 135 130 128
211 246 246 213 207 240 266 255 245 261 278 288 276 237 177 196 246 210 155 132 138 187 227 221 200 191 215 215 219 236 225 189 200 225 219 196 193 209 217 226 229 219 219 242 255 266 322 21 47 48 41 42 39 1 310 285 263 82 72 77 87 94 98 101 102 102 104 110 115 116 114 117 129 141 145 140 133 127 122 120 125 129 132 135 139 138 137
183 225 252 234 220 226 242 250 255 258 257 257 250 217 186 219 229 186 146 139 169 202 211 209 190 168 196 219 226 235 240 234 235 229 209 196 204 214 219 226 222 205 204 237 260 292 11 37 49 46 34 35 35 334 298 298 11 60 72 81 86 88 92 100 105 106 107 110 114 117 117 118 127 139 143 140 135 131 125 124 130 134 134 136 140 141 139
Height
827 824 821 819 815 812 809 805 802 797 791 786 784 783 780 779 772 754 745 748 747 755 770 769 765 766 762 756 752 749 748 748 745 739 736 737 737 738 741 741 743 745 743 745 748 750 753 751 748 748 748 743 738 730 723 724 729 735 748 751 743 748 765 777 785 781 771 765 759 756 756 759 769 773 770 774 780 782 790 798 798 803 809 809 819 828 806
827 825 822 819 816 814 810 807 804 801 798 795 792 789 786 785 778 759 748 747 748 760 772 771 769 766 759 757 754 748 745 745 744 743 740 737 739 744 743 740 741 740 737 740 744 747 754 755 746 744 749 744 735 729 723 725 734 739 745 747 745 757 774 782 791 797 791 783 779 774 768 769 776 777 771 771 775 779 785 790 794 801 805 803 814 821 803
827 825 823 820 817 814 810 808 805 803 802 799 796 795 791 785 778 764 752 746 748 758 763 764 768 767 763 763 759 752 746 739 736 739 737 733 735 742 743 738 738 737 736 740 741 740 748 754 748 744 747 743 735 732 729 730 735 737 737 736 740 759 774 777 790 807 811 806 800 791 783 780 780 778 773 772 775 780 786 793 799 803 804 802 805 805 795
828 825 823 820 818 814 811 808 805 803 801 798 796 796 792 786 779 771 762 753 752 756 755 758 766 766 767 767 759 755 752 740 730 730 733 731 730 736 738 735 737 741 742 746 748 741 740 746 748 747 747 745 738 734 732 732 734 735 734 733 741 761 771 772 780 790 793 794 789 781 781 784 785 781 776 774 774 776 783 795 800 797 800 803 796 789 788
828 826 824 821 818 815 811 808 805 802 800 797 796 794 792 790 785 780 778 770 765 764 760 762 767 765 767 767 758 754 754 747 737 731 732 732 730 733 736 735 741 747 747 752 754 747 743 744 747 749 747 745 741 735 733 734 734 733 735 736 745 765 775 774 777 778 778 779 777 774 777 782 782 780 778 775 773 775 782 789 789 788 798 804 791 783 788
828 826 824 821 818 816 812 808 804 801 798 795 794 792 791 790 785 780 783 782 779 777 771 767 767 765 764 763 757 755 755 753 749 741 734 732 731 737 742 739 740 743 745 752 756 752 751 750 748 749 748 747 747 744 740 738 735 736 740 740 746 766 777 774 775 778 776 776 775 773 776 778 777 777 778 775 773 776 780 781 779 782 790 789 779 779 783
828 826 824 822 819 816 813 810 805 800 798 794 794 793 791 790 788 783 782 784 785 781 774 769 768 766 765 762 757 756 756 755 751 743 741 741 736 739 748 745 739 738 739 746 754 755 756 756 751 749 749 749 751 753 752 746 739 739 746 745 746 762 774 771 772 778 777 775 775 773 775 778 777 776 775 774 773 772 773 774 774 775 777 772 770 778 778
828 826 825 822 820 818 814 811 807 801 798 795 794 797 796 797 796 791 788 788 783 777 772 770 771 767 764 764 759 755 755 755 749 742 744 752 746 741 747 746 737 737 738 743 751 750 748 752 750 746 749 751 751 754 755 751 745 744 749 751 749 760 773 771 771 780 782 775 772 772 774 779 781 778 775 772 771 770 768 768 768 771 774 771 773 781 777
829 827 826 823 821 819 816 813 810 805 801 799 799 800 800 800 798 794 795 793 783 777 774 772 773 770 767 769 766 761 758 755 752 745 739 744 747 743 744 744 739 738 740 744 748 744 739 743 742 737 740 744 743 745 746 747 750 752 753 754 754 761 772 771 773 788 789 777 775 777 775 778 782 781 776 772 771 770 766 763 763 765 770 773 778 780 775
829 827 826 824 821 820 817 815 812 809 806 804 805 805 801 799 796 792 795 794 784 781 779 775 776 776 773 773 770 767 763 756 756 754 741 733 738 739 738 741 741 743 747 746 741 736 733 734 733 730 730 731 732 736 738 739 746 752 754 758 759 762 770 773 779 791 790 779 779 780 781 790 793 780 770 769 769 768 766 763 762 760 762 769 773 770 767
829 828 826 824 823 821 819 817 815 812 810 809 810 809 805 804 803 796 795 795 789 785 784 783 783 781 776 774 770 766 764 759 760 764 755 740 734 734 734 738 743 747 748 739 729 726 725 725 725 726 728 730 732 734 735 737 740 744 750 758 762 763 768 774 779 788 791 783 777 782 796 807 795 769 760 765 767 767 769 765 760 758 759 761 763 762 764
829 828 827 825 823 822 820 818 816 814 814 813 812 810 807 807 807 800 798 800 795 790 790 790 787 784 779 776 773 769 767 764 762 763 759 747 738 735 733 738 747 749 740 729 723 722 725 727 730 731 732 735 735 734 736 740 741 740 742 752 762 765 768 774 777 784 790 784 783 801 814 801 776 759 756 758 759 760 764 763 760 759 758 757 760 763 763
829 828 827 826 824 823 821 819 818 816 815 813 812 810 809 807 805 802 802 804 801 797 797 794 789 785 782 777 774 771 768 765 762 758 755 751 745 740 737 739 746 742 731 725 725 729 737 743 745 746 743 740 740 740 740 741 741 741 741 745 755 763 768 772 775 782 789 791 797 810 806 781 764 761 756 752 755 756 761 767 767 763 759 756 758 763 763
829 827 827 826 824 824 822 820 819 817 815 814 812 811 810 808 807 806 804 805 806 801 798 797 793 788 785 780 777 774 770 766 763 758 756 754 750 746 744 743 742 734 727 728 731 737 748 754 757 759 757 755 757 756 750 744 741 740 742 743 747 757 765 771 777 782 787 794 798 797 791 782 774 766 756 753 756 755 757 768 769 762 758 756 756 761 764
828 827 827 826 825 824 823 821 819 818 816 814 813 811 811 809 809 809 807 808 809 802 798 800 797 792 788 784 781 780 778 775 772 767 760 756 752 748 745 742 738 730 727 732 740 745 752 759 768 775 774 772 774 769 759 752 745 738 739 741 744 751 759 766 776 780 781 790 797 797 800 798 781 763 752 749 751 749 748 762 771 763 757 756 754 759 764
828 827 826 826 825 824 823 822 820 818 817 815 813 812 811 810 810 809 808 808 808 802 798 799 796 792 791 787 784 785 786 784 781 776 767 761 756 751 745 740 736 732 731 737 744 749 756 764 771 777 777 774 775 773 765 761 756 744 738 739 745 752 757 759 770 780 781 788 797 800 800 791 771 757 750 746 747 743 744 766 779 766 756 757 756 758 762
827 827 826 825 825 824 823 822 821 819 817 816 814 813 812 811 811 810 809 809 809 804 799 797 795 794 794 794 791 789 788 787 785 784 780 774 767 760 753 746 738 732 735 743 748 751 760 767 770 775 775 766 765 771 768 764 765 759 749 748 752 758 763 765 772 779 780 784 791 792 786 773 759 752 749 746 743 741 756 785 786 763 755 758 757 758 762
826 826 825 825 825 824 823 823 821 820 818 817 815 814 812 812 812 812 810 810 811 807 799 797 799 799 799 800 798 794 792 791 790 789 788 781 775 774 770 761 751 743 740 746 753 756 762 767 768 773 774 762 758 767 769 765 768 765 758 758 760 763 767 770 773 776 779 783 788 787 776 762 752 749 746 742 743 753 774 787 773 755 756 757 755 758 761
825 825 825 824 824 824 823 822 822 820 819 817 815 814 813 813 813 813 812 812 812 808 800 798 801 801 799 799 798 795 794 794 793 794 794 788 780 777 771 764 762 760 754 752 756 758 763 768 765 765 770 766 760 763 765 763 763 760 757 761 765 766 769 772 773 777 780 779 782 786 777 757 746 747 743 741 754 770 773 765 754 753 756 754 753 757 758
824 824 824 824 823 823 822 822 821 821 819 818 817 814 813 813 813 813 814 813 812 808 802 799 800 800 800 800 800 799 798 797 796 797 799 795 785 779 777 773 772 773 768 766 767 764 765 768 763 760 767 767 759 759 762 760 755 751 753 758 758 757 765 771 770 771 776 778 782 788 781 756 741 746 749 749 758 764 757 751 751 752 751 751 753 754 754
824 823 823 823 822 822 822 821 820 820 819 818 817 816 814 813 813 813 813 812 813 809 803 799 799 799 799 799 798 799 800 799 798 797 798 795 788 788 793 791 787 784 778 777 780 776 772 772 767 760 761 759 755 757 762 762 756 745 742 749 750 748 757 766 763 759 767 776 776 770 759 744 736 743 749 749 748 746 744 748 750 749 748 750 751 751 751
823 822 822 822 821 821 821 821 820 820 819 818 818 816 815 813 812 813 812 810 810 808 802 799 798 797 796 795 794 795 796 795 795 795 796 795 790 790 793 791 788 785 778 777 784 786 782 782 778 771 767 762 758 757 759 763 763 749 739 744 747 741 740 747 749 747 750 755 752 744 738 736 735 737 739 740 739 739 740 743 745 747 747 747 748 750 750
821 821 821 821 821 821 820 820 820 820 818 818 818 816 816 814 812 812 811 809 808 804 799 798 797 794 791 790 790 791 792 792 792 791 792 795 792 789 789 788 785 780 775 776 784 787 786 786 782 777 774 765 759 760 761 761 759 751 742 741 738 731 729 733 737 739 740 741 738 735 736 737 734 732 733 735 738 739 740 741 743 745 745 744 747 749 749
820 820 820 820 820 820 820 819 819 819 818 818 818 816 816 815 813 813 812 810 809 805 799 796 795 793 790 788 787 788 788 789 790 788 788 791 792 789 786 783 781 778 776 776 778 780 783 783 778 776 775 764 757 763 766 760 755 750 746 744 738 731 731 734 737 740 745 746 741 738 740 740 736 735 735 735 738 740 741 742 743 743 743 744 745 746 748
819 819 819 820 819 819 819 819 819 819 818 818 817 816 815 814 814 815 814 813 812 810 807 802 795 791 790 788 786 786 785 785 786 786 785 786 786 785 783 779 778 779 777 775 775 777 783 783 779 779 778 766 756 759 762 757 753 749 748 750 745 736 733 739 743 745 746 747 744 741 743 743 740 740 741 740 741 742 741 742 743 743 744 745 744 745 747
817 818 818 818 818 818 818 818 818 818 818 817 816 816 815 814 814 814 815 814 812 810 810 805 795 790 790 788 783 782 782 782 782 782 781 781 780 779 778 776 776 776 775 774 775 777 780 781 779 781 779 767 756 755 756 752 749 747 747 746 740 736 738 743 746 747 747 747 746 745 747 747 745 744 744 743 742 743 743 744 744 744 745 746 745 745 745
816 816 817 817 817 817 817 817 817 817 817 816 816 815 814 813 813 813 814 815 813 811 810 805 796 792 791 786 780 780 780 779 779 779 778 777 777 775 774 774 774 774 774 775 775 774 776 777 776 775 773 765 756 754 751 746 744 746 746 740 735 737 743 744 746 751 752 749 745 743 747 752 749 744 743 742 741 741 743 743 743 745 746 746 746 746 746
814 815 815 816 816 816 816 816 816 816 816 816 815 815 814 812 812 812 813 815 815 814 812 806 798 795 792 784 778 778 779 777 777 777 776 774 774 773 772 770 770 771 772 774 774 774 775 775 772 769 765 761 758 754 748 743 744 746 745 738 733 736 739 739 743 749 748 741 738 737 741 747 747 742 741 741 739 739 742 743 744 745 745 745 745 746 747
813 814 814 814 815 815 815 816 816 816 816 815 814 813 812 810 810 811 812 814 815 813 811 808 802 796 791 784 778 776 776 775 775 774 773 772 771 770 770 769 768 768 768 769 771 772 771 769 766 764 760 759 761 758 751 749 751 748 741 734 730 729 730 730 734 738 738 735 735 735 736 740 742 740 739 739 738 739 741 742 742 743 744 743 744 745 746
811 812 813 813 814 814 814 815 815 815 815 815 814 814 814 812 811 811 812 813 813 812 812 812 807 798 791 785 780 776 773 772 772 771 770 770 769 767 768 767 766 765 765 765 765 767 766 763 761 758 755 754 759 761 757 755 753 745 734 730 729 728 728 727 728 731 734 734 733 733 733 735 736 737 737 737 736 737 739 740 741 741 742 742 743 744 745
810 811 812 812 813 814 814 815 815 815 815 815 815 816 816 814 812 811 812 813 813 812 812 813 809 801 792 785 780 777 773 770 769 769 768 767 766 765 765 765 765 764 764 764 762 761 761 760 759 757 752 750 753 756 754 754 753 744 733 728 728 728 728 726 724 726 729 730 731 732 732 733 734 737 738 738 736 735 737 739 739 739 740 741 742 744 745
808 809 810 811 812 813 813 814 814 814 814 813 814 814 813 811 811 811 811 812 813 813 813 813 810 804 796 786 778 775 773 770 768 767 766 765 764 763 762 762 762 761 760 761 761 758 756 756 756 754 751 749 751 751 750 751 749 741 731 726 727 727 727 726 724 724 725 727 730 734 736 735 735 736 737 737 736 735 736 738 738 738 740 741 742 744 745
807 808 809 810 811 812 813 813 813 814 813 812 812 811 809 810 811 811 811 813 813 812 812 813 811 807 800 791 780 772 770 770 768 766 765 762 761 761 760 758 759 759 758 759 758 755 751 751 752 751 748 747 749 751 749 744 739 732 727 725 725 724 724 725 724 723 724 724 725 729 734 735 733 733 734 735 736 736 736 737 739 739 740 743 744 745 746
806 806 808 809 810 811 812 812 813 813 812 812 810 808 807 809 810 810 811 812 812 812 812 812 811 807 802 796 786 774 770 771 770 768 765 760 757 758 759 757 757 758 756 754 753 752 750 748 749 750 747 744 747 750 746 737 730 727 725 724 723 723 723 724 724 723 723 723 723 725 727 730 732 734 734 734 735 736 736 737 738 740 742 745 746 746 746
804 806 807 808 809 811 812 812 812 812 812 811 809 806 806 808 807 809 811 811 812 813 812 810 811 810 808 807 797 781 772 772 772 769 765 759 754 755 756 756 758 757 753 750 751 752 749 746 747 748 746 744 746 745 738 730 727 726 724 723 722 722 722 723 724 723 722 722 725 727 729 731 733 735 735 735 736 737 737 739 740 741 744 746 747 747 747
803 805 806 808 809 810 810 811 812 812 810 809 806 805 806 807 807 809 810 809 811 813 811 809 810 809 810 811 801 784 775 775 773 768 765 760 756 754 752 754 757 753 748 748 751 750 745 742 744 747 746 744 741 735 727 724 725 724 722 721 720 719 720 721 722 723 723 723 726 728 730 732 734 735 736 737 737 738 739 741 742 743 744 747 747 747 747
802 804 806 807 809 810 810 810 809 808 806 805 805 806 807 807 807 809 809 809 810 810 810 812 811 807 806 808 801 788 783 782 779 774 770 767 764 759 754 753 754 749 746 748 748 744 739 738 741 745 743 736 731 726 721 721 721 719 717 718 717 716 717 718 718 720 724 726 729 730 731 733 735 736 736 738 739 739 740 742 743 744 745 746 747 747 747
801 803 805 806 808 810 809 807 805 804 803 804 806 807 806 806 807 808 808 808 809 807 808 812 811 806 807 808 801 794 791 789 785 782 777 772 769 766 760 758 756 753 752 749 739 734 736 738 738 739 736 727 721 720 718 717 717 715 714 715 713 713 715 716 716 719 724 727 729 730 731 733 735 735 736 737 739 739 741 743 744 744 744 746 746 746 746
800 802 804 805 806 807 805 803 802 803 804 805 807 807 806 805 807 808 806 806 807 806 806 808 805 802 804 805 800 794 793 793 792 789 783 777 775 773 770 768 764 762 762 755 739 732 738 741 737 735 732 723 717 715 713 712 713 712 711 710 710 710 712 713 712 713 716 719 722 724 725 728 731 733 735 736 738 739 741 742 743 744 745 745 746 746 747
799 800 802 803 803 803 803 802 802 803 804 805 807 808 806 806 806 805 803 804 806 803 800 800 797 794 795 799 797 793 791 791 790 788 784 779 775 773 775 775 770 768 771 763 745 735 740 743 738 735 729 719 713 711 711 711 710 709 707 707 707 707 708 710 710 710 711 715 718 720 722 724 726 730 733 735 737 738 739 739 741 743 744 745 745 746 747
797 799 800 800 800 801 802 802 802 803 804 805 807 808 808 807 804 800 799 802 802 795 790 791 792 790 789 792 794 791 787 784 783 783 782 777 772 773 776 774 769 771 773 763 746 739 742 743 740 733 723 715 711 710 709 708 707 705 704 705 704 704 706 708 710 712 713 716 719 721 722 724 727 730 733 734 735 736 737 738 740 741 742 744 745 746 747
795 796 797 798 799 800 801 802 804 804 805 807 809 809 807 804 801 798 798 798 793 787 784 785 786 784 783 784 785 785 784 781 780 781 781 776 771 772 775 774 772 774 770 756 746 745 746 744 739 730 719 712 710 707 704 704 704 703 703 703 703 704 705 708 712 714 715 717 720 722 723 725 727 730 731 732 733 735 737 739 740 741 742 744 746 746 747
794 796 797 799 799 800 801 803 803 804 806 808 809 809 807 803 798 795 794 791 787 784 782 780 779 779 780 780 780 780 780 781 781 783 784 779 773 772 775 777 776 770 759 751 751 753 749 742 735 725 716 711 709 706 704 703 703 703 705 705 705 705 706 707 712 716 717 719 721 723 724 725 728 730 731 732 734 736 739 740 740 741 742 744 746 746 747
794 796 798 799 799 800 801 802 801 802 805 807 805 804 804 801 796 793 790 787 783 782 782 780 780 781 781 781 782 781 780 780 783 785 785 781 777 776 777 777 771 762 754 753 756 754 746 737 729 723 718 714 712 709 708 706 703 704 708 710 709 709 710 711 713 716 719 721 722 723 725 727 729 731 733 734 735 738 740 740 741 741 743 744 745 746 747
794 796 799 800 800 800 801 801 800 800 800 800 798 796 794 792 790 789 786 781 778 779 780 779 779 780 780 781 782 782 780 781 784 785 783 780 779 777 775 771 765 761 760 760 757 751 743 736 730 727 725 721 715 713 714 713 708 706 708 711 714 715 715 716 717 719 721 722 723 725 727 730 731 733 735 736 736 737 738 739 741 742 743 744 745 746 747
793 795 796 799 800 799 799 799 799 797 793 790 789 789 787 785 784 783 780 777 776 778 779 777 777 780 781 782 782 781 781 782 782 780 780 781 780 774 768 765 764 764 765 763 757 749 741 735 731 729 728 725 720 717 717 720 720 713 708 709 715 718 718 719 721 722 723 724 725 726 729 731 733 736 737 737 737 737 738 739 741 742 743 744 745 746 747
792 792 793 795 796 796 796 795 792 788 785 782 782 782 782 781 780 778 777 776 776 777 777 777 778 780 780 780 781 781 781 781 779 777 777 777 774 769 767 768 767 763 760 759 754 747 739 735 734 732 729 726 723 719 719 724 729 725 716 712 713 715 717 720 722 723 725 726 727 728 730 733 735 736 737 737 737 738 739 740 741 742 742 743 745 746 747
790 791 792 794 793 792 791 789 785 782 781 780 779 779 778 777 777 778 778 777 777 778 780 780 781 782 781 780 781 780 779 779 779 775 771 770 769 770 771 772 767 757 749 746 744 740 735 732 732 731 729 727 726 723 722 726 731 731 724 716 712 713 717 720 723 725 726 727 728 729 731 732 734 735 736 736 738 739 740 741 741 742 743 744 745 746 747
789 790 791 791 788 784 782 782 782 782 780 778 777 777 777 777 778 779 779 778 779 780 780 780 782 783 781 780 780 780 778 777 776 771 767 767 769 769 768 767 764 755 745 739 737 737 735 731 728 727 726 725 726 726 726 728 731 730 725 717 714 715 718 722 724 726 728 728 729 730 731 732 733 735 736 737 738 739 741 742 742 743 744 744 745 747 748
789 789 789 788 786 783 779 779 780 781 779 776 775 776 776 777 778 778 778 779 780 781 780 780 782 782 780 780 782 782 777 773 771 769 766 765 764 764 764 763 758 750 742 739 739 739 736 732 729 727 726 726 727 729 730 731 731 728 723 719 718 720 722 723 725 727 728 728 729 730 731 732 734 735 736 737 739 740 741 743 743 744 745 746 746 747 748
790 789 786 784 783 782 780 779 780 780 778 777 776 775 775 776 777 777 776 777 780 782 782 780 780 780 780 782 782 777 769 764 764 764 761 758 758 759 760 755 746 740 739 739 739 737 734 731 731 731 731 730 732 734 735 734 730 725 722 722 722 723 724 725 727 728 729 729 730 731 732 733 735 735 736 738 739 740 742 743 744 745 745 746 747 748 748
787 786 783 780 778 779 779 780 779 778 776 775 773 772 772 773 774 773 774 776 779 781 779 776 777 780 781 778 773 767 763 762 762 760 755 751 749 749 747 741 736 736 737 738 736 734 733 732 732 734 734 735 736 738 737 734 729 725 725 726 725 725 727 728 728 729 730 731 732 732 733 735 735 736 737 738 739 740 742 743 744 745 746 747 748 749 749